Hourly Data Report for August 19, 2016

TORONTO CITY
ONTARIO

43°40'00.000" N
79°24'00.000" W
112.50 m
6158355
71508
XTO

Download Data

Hourly Data (August 2016)
Hourly Data Report for August 19, 2016
TIME
LST
Temp Definition
°C
Dew Point Definition
°C
Rel Hum Definition
%
Precip. Amount Definition
mm

Wind Dir Definition
10's deg

Wind Spd Definition
km/h
Visibility Definition
km
Stn Press Definition
kPa
Hmdx Definition


Wind Chill Definition


Weather Definition


00:00 22.2 17.4 74 0.0 LegendMM LegendMM   100.23 28   LegendNANA
01:00 22.1 17.5 75 0.0 LegendMM LegendMM   100.22 28   LegendNANA
02:00 22.7 17.0 70 0.0 LegendMM LegendMM   100.21 28   LegendNANA
03:00 21.1 17.5 80 0.0 LegendMM LegendMM   100.22 27   LegendNANA
04:00 20.5 17.7 84 0.0 LegendMM LegendMM   100.17 26   LegendNANA
05:00 20.6 17.3 81 0.0 LegendMM LegendMM   100.17 26   LegendNANA
06:00 20.6 17.6 83 0.0 LegendMM LegendMM   100.19 26   LegendNANA
07:00 21.7 17.6 78 0.0 LegendMM LegendMM   100.20 27   LegendNANA
08:00 23.8 17.2 67 0.0 LegendMM LegendMM   100.14 29   LegendNANA
09:00 25.0 17.9 65 0.0 LegendMM LegendMM   100.15 31   LegendNANA
10:00 26.0 19.2 66 0.0 LegendMM LegendMM   100.15 33   LegendNANA
11:00 27.2 18.6 60 0.0 LegendMM LegendMM   100.14 34   LegendNANA
12:00 27.1 14.5 46 0.0 LegendMM LegendMM   100.10 31   LegendNANA
13:00 28.9 17.6 51 0.0 LegendMM LegendMM   100.05 35   LegendNANA
14:00 28.7 18.1 53 0.0 LegendMM LegendMM   100.01 35   LegendNANA
15:00 29.0 15.9 45 0.0 LegendMM LegendMM   99.92 34   LegendNANA
16:00 27.3 17.2 54 0.0 LegendMM LegendMM   99.89 33   LegendNANA
17:00 26.7 16.8 55 0.0 LegendMM LegendMM   99.88 32   LegendNANA
18:00 24.9 18.8 69 0.0 LegendMM LegendMM   99.80 32   LegendNANA
19:00 24.7 18.1 67 0.0 LegendMM LegendMM   99.79 31   LegendNANA
20:00 24.4 18.3 69 0.0 LegendMM LegendMM   99.79 31   LegendNANA
21:00 24.0 19.4 76 0.0 LegendMM LegendMM   99.79 31   LegendNANA
22:00 24.3 19.5 74 0.0 LegendMM LegendMM   99.79 31   LegendNANA
23:00 23.4 19.8 80 0.0 LegendMM LegendMM   99.77 31   LegendNANA

Notes on Data Quality.

Legend

  • E = Estimated
  • M = Missing
  • NA = Not Available*
  • [empty] = Indicates an unobserved value
Date modified: